#timestamp,LO_Frequency,Hit,StdDev 
1677826815.4,286046999.8,N
1677826835.3,286047000.1,N
1677826855.1,286047000.9,N
1677826875.9,286047000.3,N
1677826895.7,286047000.5,N
1677826915.5,286047002.3,N
1677826935.4,286047002.0,N
1677826955.2,286047000.8,N
1677826975.0,286046999.9,N
1677826975.9,286046999.9,N
1677826995.8,286047002.8,N
1677827015.6,286047000.4,N
1677827035.5,286047001.0,N
1677827055.3,286047000.0,N
1677827075.1,286046999.7,N
1677827095.9,286047000.7,N
1677827115.7,286047000.1,N
1677827135.5,286047000.3,N
1677827155.4,286047000.3,N
1677827175.2,286047000.6,N
1677827195.1,286046998.6,N
1677827196.0,286046998.6,N
1677827215.8,286047000.8,N
1677827235.6,286047000.6,N
1677827255.5,286046999.8,N
1677827275.3,286047001.6,N
1677827295.1,286047001.5,N
1677827315.9,286046999.7,N
1677827335.7,286047000.0,N
1677827355.6,286047000.4,N
1677827375.4,286047002.3,N
1677827395.2,286047002.3,N
1677827415.1,286047001.9,N
1677827416.0,286047001.9,N
1677827435.8,286047002.0,N
1677827455.7,286047002.0,N
1677827475.5,286047001.4,N
1677827495.3,286046999.8,N
1677827515.2,286046999.8,N
1677827535.0,286047000.2,N
1677827535.9,286047000.2,N
1677827555.7,286047001.8,N
1677827575.6,286047001.9,N
1677827595.4,286047001.9,N
1677827615.3,286047002.7,N
1677827635.1,286046999.9,N
1677827636.0,286046999.9,N
1677827655.8,286047000.2,N
1677827675.7,286047002.5,N
1677827695.5,286046999.8,N
1677827715.3,286047002.5,N
1677827735.2,286047000.0,N
1677827755.0,286047000.2,N
1677827755.9,286047000.2,N
1677827775.8,286047001.9,N
1677827795.6,286047004.4,Y
1677827815.4,286047002.7,P
1677827835.3,286047002.8,P
1677827855.1,286046999.8,N
1677827875.9,286046999.8,N
1677827895.7,286047002.3,N
1677827915.5,286047002.0,N
1677827935.4,286047002.5,N
1677827955.2,286047000.6,N
1677827975.0,286047000.9,N
1677827975.9,286047000.9,N
1677827995.8,286047000.8,N
1677828015.6,286047000.6,N
1677828035.5,286047000.3,N
1677828055.3,286046999.0,N
1677828075.1,286046999.2,N
1677828125.9,286046998.9,E
1677828135.8,286047000.7,N
1677828155.7,286047000.9,P
1677828175.5,286047000.4,P
1677828195.3,286047000.5,N
1677828215.2,286047000.3,N
1677828235.0,286047000.6,N
1677828235.9,286047000.6,N
1677828255.8,286047002.7,Y
1677828275.6,286047002.2,P
1677828295.4,286047002.8,P
1677828315.3,286047000.5,N
1677828335.1,286046998.3,N
1677828355.8,286047000.7,N
1677828375.7,286046999.9,N
1677828395.5,286047000.0,N
1677828415.4,286047000.0,N
1677828435.2,286046999.7,N
1677828455.0,286047002.8,N
1677828455.9,286047002.8,N
1677828475.8,286047002.2,N
1677828495.6,286047000.4,N
1677828515.5,286047000.5,N
1677828535.3,286047000.4,N
1677828555.1,286047000.3,N
1677828575.9,286047001.1,N
1677828595.7,286047000.6,N
1677828615.5,286047001.0,N
1677828635.4,286047000.0,N
1677828655.2,286047000.7,N
1677828675.1,286047000.3,N
1677828676.0,286047000.3,N
1677828695.8,286047001.2,N
1677828715.6,286047000.0,N
1677828735.5,286047000.9,N
1677828755.3,286046998.6,N
1677828775.1,286047000.6,N
1677828795.9,286047002.5,N
1677828815.7,286047001.5,N
1677828835.6,286047001.8,N
1677828855.4,286047001.3,N
1677828875.2,286047002.5,N
1677828895.1,286047002.4,N
1677828896.0,286047002.4,N
1677828915.8,286047000.5,N
1677828935.6,286047000.3,N
1677828955.5,286047001.7,N
1677828975.3,286047003.6,Y
1677828995.2,286047001.1,P
1677829015.9,286046998.3,P
1677829035.7,286046999.6,N
1677829055.6,286046999.8,N
1677829075.4,286047002.1,N
1677829095.3,286047000.2,N
1677829115.1,286047000.2,N
1677829116.0,286047000.2,N
1677829135.8,286047002.0,N
1677829155.7,286046999.9,N
1677829175.5,286047000.1,N
1677829195.4,286046998.4,N
1677829215.2,286046997.1,N
1677829235.0,286046997.0,N
1677829235.9,286046997.0,N
1677829255.8,286046999.4,N
1677829275.6,286046999.1,N
1677829295.5,286046997.1,N
1677829315.3,286046997.7,N
1677829335.1,286046999.4,N
1677829355.9,286047000.0,N
1677829375.7,286047000.8,N
1677829395.5,286047000.5,N
1677829415.4,286046998.1,N
1677829435.2,286047000.7,N
1677829455.1,286046998.1,N
1677829456.0,286046998.1,N
1677829475.8,286046998.4,N
1677829495.6,286046998.9,N
1677829515.5,286046996.5,N
1677829535.3,286046996.8,N
1677829555.1,286046999.1,N
1677829575.9,286046998.1,N
1677829595.7,286046998.3,N
1677829615.6,286047000.2,N
1677829635.4,286046999.8,N
1677829655.2,286046998.6,N
1677829675.1,286046998.4,N
1677829676.0,286046998.4,N
1677829695.8,286046998.6,N
1677829715.7,286047000.9,N
1677829735.5,286046998.4,N
1677829755.3,286046998.2,N
1677829775.2,286046998.4,N
1677829795.0,286047000.8,N
1677829795.9,286047000.8,N
1677829815.7,286046998.4,N
1677829835.6,286046999.4,N
1677829855.4,286046999.0,N
1677829875.3,286047000.8,N
1677829895.1,286046998.3,N
1677829896.0,286046998.3,N
1677829915.8,286047001.2,N
1677829935.7,286047000.7,N
1677829955.5,286046998.3,N
1677829975.3,286047000.7,N
1677829995.2,286046998.9,N
1677830015.0,286046998.9,N
1677830015.9,286046998.9,N
1677830035.8,286046998.3,N
1677830055.6,286046999.2,N
1677830075.4,286046997.0,N
1677830095.3,286046997.6,N
1677830115.1,286046995.7,Y
1677830135.9,286046996.6,P
1677830155.7,286046999.1,N
1677830175.5,286046998.7,N
1677830195.4,286046998.1,N
1677830215.2,286047000.7,N
1677830235.0,286047000.0,N
1677830235.9,286047000.0,N
1677830255.8,286047001.5,N
1677830275.6,286047002.8,N
1677830295.5,286047000.4,N
1677830315.3,286046999.0,N
1677830335.1,286046997.8,N
1677830355.9,286046996.6,N
1677830375.7,286046996.6,N
1677830395.5,286046999.6,N
